Newton, KS

10:35 AM CST on December 10, 2019 (GMT -0600)
Newton City County

Weather History for KEWK - October, 2019

Change the Weather History Date:

Tuesday, October 15, 2019

  Actual Average Record
Temperature  
Mean Temperature 55 °F -  
Max Temperature 64 °F 65 °F 86 °F (1999)
Min Temperature 45 °F 44 °F 28 °F (2018)
Degree Days  
Heating Degree Days 10    
Growing Degree Days 5 (Base 50)    
Moisture  
Dew Point 48 °F    
Average Humidity 76    
Maximum Humidity 100    
Minimum Humidity 29    
Precipitation  
Precipitation 0.00 in - - ()
Sea Level Pressure  
Sea Level Pressure 29.95 in    
Wind  
Wind Speed 12 mph (North)    
Max Wind Speed 26 mph    
Max Gust Speed 34 mph    
Visibility 7 miles    
Events Fog    
Averages and records for this station are not official NWS values.
T = Trace of Precipitation, MM = Missing Value Source: NWS Daily Summary

Daily Weather History Graph

Daily Weather History Graph

Search for Another Location

Airport or City:

Astronomy

Oct. 15, 2019 Rise Set
Actual Time 7:37 AM CDT 6:51 PM CDT
Civil Twilight 7:11 AM CDT 7:18 PM CDT
Nautical Twilight 6:40 AM CDT 7:48 PM CDT
Astronomical Twilight 6:09 AM CDT 8:19 PM CDT
Moon 8:13 PM CDT (10/15) 9:08 AM CDT (10/15)
Length of Visible Light 12h 07m
Length of Day
11h 14m
Full, 97% of the Moon is Illuminated
Oct 15
Full
Oct 21
Last Quarter
Oct 27
New
Nov 4
First Quarter
Nov 12
Full

Hourly Weather History & Observations

Time (CDT) Temp. Windchill Dew Point Humidity Pressure Visibility Wind Dir Wind Speed Gust Speed Precip Events Conditions
12:56 AM 60.1 °F - 57.9 °F 93% 29.83 in 10.0 mi South 10.4 mph - N/A   Clear
1:56 AM 60.1 °F - 57.9 °F 93% 29.82 in 10.0 mi South 9.2 mph - N/A   Clear
2:56 AM 59.0 °F - 57.0 °F 93% 29.82 in 10.0 mi SSE 8.1 mph - N/A   Clear
3:51 AM 55.4 °F - 55.4 °F 100% 29.84 in 2.5 mi SSE 6.9 mph - N/A   Partly Cloudy
3:56 AM 55.9 °F - 55.9 °F 100% 29.81 in 2.0 mi SSE 8.1 mph - N/A   Scattered Clouds
4:01 AM 55.4 °F - 55.4 °F 100% 29.84 in 1.8 mi SSE 8.1 mph - N/A   Mostly Cloudy
4:07 AM 57.2 °F - 55.4 °F 94% 29.84 in 1.0 mi SSE 8.1 mph - N/A   Mostly Cloudy
4:13 AM 57.2 °F - 57.2 °F 100% 29.84 in 0.5 mi SSE 8.1 mph - N/A Fog Fog
4:33 AM 57.2 °F - 57.2 °F 100% 29.84 in 1.0 mi SSE 8.1 mph - N/A   Overcast
4:40 AM 57.2 °F - 57.2 °F 100% 29.84 in 3.0 mi South 9.2 mph - N/A   Overcast
4:56 AM 57.9 °F - 57.9 °F 100% 29.81 in 4.0 mi SSE 6.9 mph - N/A   Overcast
5:56 AM 61.0 °F - 60.1 °F 97% 29.83 in 5.0 mi SSW 6.9 mph - N/A   Overcast
6:56 AM 61.0 °F - 60.1 °F 97% 29.87 in 5.0 mi West 5.8 mph - N/A   Overcast
7:32 AM 60.8 °F - 59.0 °F 94% 29.92 in 1.8 mi NNW 17.3 mph 20.7 mph N/A   Overcast
7:37 AM 59.0 °F - 59.0 °F 100% 29.92 in 0.8 mi NNW 10.4 mph - N/A   Overcast
7:50 AM 59.0 °F - 59.0 °F 100% 29.92 in 1.2 mi North 9.2 mph - N/A   Overcast
7:56 AM 59.0 °F - 59.0 °F 100% 29.90 in 2.5 mi North 9.2 mph - N/A   Overcast
7:59 AM 59.0 °F - 59.0 °F 100% 29.93 in 3.0 mi North 12.7 mph - N/A   Overcast
8:08 AM 59.0 °F - 57.2 °F 94% 29.93 in 9.0 mi NNW 15.0 mph 19.6 mph N/A   Overcast
8:41 AM 53.6 °F - 48.2 °F 82% 29.96 in 10.0 mi North 18.4 mph - N/A   Overcast
8:56 AM 52.0 °F - 46.9 °F 83% 29.96 in 10.0 mi North 20.7 mph - N/A   Mostly Cloudy
9:10 AM 53.6 °F - 46.4 °F 77% 29.98 in 10.0 mi North 23.0 mph 28.8 mph N/A   Scattered Clouds
9:56 AM 55.0 °F - 44.1 °F 67% 29.98 in 10.0 mi NNE 23.0 mph 29.9 mph N/A   Clear
10:56 AM 57.9 °F - 42.1 °F 56% 30.00 in 10.0 mi North 26.5 mph 32.2 mph N/A   Clear
11:56 AM 59.0 °F - 41.0 °F 51% 30.01 in 10.0 mi North 24.2 mph 32.2 mph N/A   Clear
12:56 PM 62.1 °F - 39.9 °F 44% 30.00 in 10.0 mi North 25.3 mph 32.2 mph N/A   Clear
1:56 PM 64.0 °F - 36.0 °F 35% 30.01 in 10.0 mi NNE 26.5 mph 34.5 mph N/A   Clear
2:56 PM 64.9 °F - 35.1 °F 33% 30.01 in 10.0 mi North 19.6 mph 27.6 mph N/A   Clear
3:56 PM 64.9 °F - 32.0 °F 29% 30.03 in 10.0 mi North 24.2 mph 31.1 mph N/A   Clear
4:56 PM 63.0 °F - 30.9 °F 30% 30.04 in 10.0 mi North 20.7 mph 26.5 mph N/A   Clear
5:56 PM 61.0 °F - 30.0 °F 31% 30.05 in 10.0 mi North 20.7 mph 25.3 mph N/A   Clear
6:56 PM 57.0 °F - 30.0 °F 36% 30.08 in 10.0 mi North 16.1 mph - N/A   Clear
8:56 PM 50.0 °F - 30.9 °F 48% 30.15 in 10.0 mi North 12.7 mph - N/A   Clear
9:56 PM 46.0 °F 41.0 °F 30.0 °F 54% 30.17 in 10.0 mi North 10.4 mph - N/A   Clear
10:56 PM 48.0 °F - 30.0 °F 50% 30.19 in 10.0 mi North 17.3 mph - N/A   Clear
11:56 PM 45.0 °F 38.5 °F 30.9 °F 58% 30.22 in 10.0 mi North 13.8 mph - N/A   Clear